Regional Weather Roundup
Issued by NWS

Home | Current Version | Previous Version | Text Only | Print | Product List | Glossary On
Versions: 1 2 3 4 5 6 7 8 9 10 11 12 13 14 15 16 17 18 19 20 21 22 23 24 25 26 27 28 29 30 31 32 33 34 35 36 37 38 39 40 41 42 43 44 45 46 47 48 49 50
000
ASUS43 KTOP 271408
RWRKS

WEATHER ROUNDUP FOR KANSAS
NATIONAL WEATHER SERVICE GOODLAND KS
900 AM CDT FRI MAY 27 2016

NOTE:  "FAIR" INDICATES FEW OR NO CLOUDS BELOW 12,000 FEET WITH NO
SIGNIFICANT WEATHER AND/OR OBSTRUCTIONS TO VISIBILITY.

KSZ001>006-013>018-027>032-041>047-271500-
NORTHWEST KANSAS

CITY           SKY/WX    TMP DP  RH WIND       PRES   REMARKS
GOODLAND       MOSUNNY   53  51  93 E10       29.73S
HAYS           CLOUDY    34 N/A N/A S12       29.71R WCI  25
HILL CITY      CLOUDY    58  56  93 NE6       29.75R
RUSSELL        CLOUDY    62  58  86 S5        29.70R
$$

KSZ061>065-074>080-084>089-271500-
SOUTHWEST KANSAS

CITY           SKY/WX    TMP DP  RH WIND       PRES   REMARKS
DODGE CITY     CLOUDY    58  58 100 SW14      29.69R FOG
ELKHART          N/A     57  42  57 W23         N/A
GARDEN CITY    CLOUDY    55  51  86 N9        29.72R
GREAT BEND     CLOUDY    61  54  77 SE18      29.67F
LIBERAL        SUNNY     57  45  62 NW17      29.74F
PRATT          CLOUDY    59  58  96 SE17G23   29.68F
$$

KSZ066>073-081>083-090>101-271500-
SOUTHEAST KANSAS

CITY           SKY/WX    TMP DP  RH WIND       PRES   REMARKS
CHANUTE        CLOUDY    64  59  83 SE7       29.78R
COFFEYVILLE    CLOUDY    66  60  81 E7        29.76F
HUTCHINSON     CLOUDY    63  59  87 SE14G20   29.70F
MEDICINE LODGE   N/A     63  59  87 SE10G20   29.69R
NEWTON         PTSUNNY   63  55  77 SE16      29.74S
PARSONS        CLOUDY    65  61  87 MISG      29.78F
WICHITA INTL   CLOUDY    65  60  84 E16       29.70F
WICHITA JABRA  CLOUDY    63  60  90 E10       29.71F
WICHITA MCCONL CLOUDY    64  61  88 SE16G22   29.70F
WINFIELD       CLOUDY    66  62  87 E13       29.71S
$$

KSZ007>012-019>026-033>040-048>060-102>105-271500-
NORTHEAST KANSAS

CITY           SKY/WX    TMP DP  RH WIND       PRES   REMARKS
CONCORDIA      CLOUDY    60  57  89 E3        29.74R
EMPORIA        CLOUDY    60  58  92 SE14G22   29.75R
LAWRENCE       CLOUDY    62  60  93 S15G23    29.75R
MANHATTAN      CLOUDY    65  58  78 SE7       29.74R
MARYSVILLE     CLOUDY    63  59  88 N5        29.74R
OLATHE IND     MOSUNNY   63  60  90 S8        29.76R
OLATHE EXE     MOSUNNY   63  60  90 S9        29.75R
SALINA         CLOUDY    64  59  83 S8        29.72R
TOPEKA BILLARD CLOUDY    62  60  93 S13       29.76R
TOPEKA FORBES  CLOUDY    63  60  90 SE9       29.75R
$$




USA.gov is the U.S. government's official web portal to all federal, state and local government web resources and services.